When you browse on this site, cookies collect data to enhance your experience and personalize the content and advertising you see.
Visit our Privacy Policy to learn more. By continuing to use the site, you agree to this use of cookies and data.
  • In Hungary
  • List of Countries
  • For 7 days
  • Water Temperature
  • Satellite Maps
  • Weather Map
  • News
  • Weather Widgets
  • user-avatar
    Login

    Hourly Weather Kadako

    Today, 12 December, Wednesday

    Time Temperature Precipitation Wind Pressure Humidity
    00:00 +17°C° 0 mm 0 mps 736 mmHg 90%
    01:00 +17°C° 0 mm 0 mps 735 mmHg 92%
    02:00 +16°C° 0 mm 0 mps 735 mmHg 94%
    03:00 +16°C° 0 mm 0 mps 735 mmHg 94%
    04:00 +16°C° 0 mm 0 mps 734 mmHg 95%
    05:00 +16°C° 0 mm 0 mps 734 mmHg 95%
    06:00 +20°C° 0 mm 1 mps 734 mmHg 84%
    07:00 +23°C° 0 mm 1 mps 734 mmHg 74%
    08:00 +25°C° 0 mm 1 mps 734 mmHg 64%
    09:00 +27°C° 0 mm 2 mps 734 mmHg 57%
    10:00 +30°C° 0 mm 2 mps 733 mmHg 50%
    11:00 +32°C° 0 mm 2 mps 733 mmHg 44%
    12:00 +34°C° 0 mm 2 mps 732 mmHg 41%
    13:00 +35°C° 0 mm 2 mps 732 mmHg 39%
    14:00 +36°C° 0 mm 2 mps 731 mmHg 36%
    15:00 +36°C° 0 mm 2 mps 731 mmHg 38%
    16:00 +35°C° 0 mm 2 mps 731 mmHg 40%
    17:00 +34°C° 0 mm 2 mps 731 mmHg 43%
    18:00 +31°C° 0 mm 2 mps 731 mmHg 51%
    19:00 +28°C° 0 mm 1 mps 731 mmHg 59%
    20:00 +25°C° 0 mm 1 mps 732 mmHg 68%
    21:00 +24°C° 0 mm 1 mps 732 mmHg 71%
    22:00 +23°C° 0 mm 1 mps 733 mmHg 75%
    23:00 +20°C° 0 mm 0 mps 733 mmHg 78%

    Tomorrow, 13 December, Thursday

    Time Temperature Precipitation Wind Pressure Humidity
    00:00 +20°C° 0 mm 0 mps 733 mmHg 80%
    01:00 +22°C° 0 mm 1 mps 733 mmHg 81%
    02:00 +21°C° 0 mm 1 mps 733 mmHg 83%
    03:00 +21°C° 0 mm 1 mps 734 mmHg 84%
    04:00 +21°C° 0 mm 1 mps 734 mmHg 86%
    05:00 +20°C° 0 mm 1 mps 735 mmHg 87%
    06:00 +21°C° 0 mm 2 mps 735 mmHg 79%
    07:00 +24°C° 0 mm 2 mps 736 mmHg 71%
    08:00 +26°C° 0 mm 2 mps 737 mmHg 62%
    09:00 +28°C° 0 mm 2 mps 737 mmHg 58%
    10:00 +29°C° 0 mm 2 mps 737 mmHg 53%
    11:00 +31°C° 0 mm 2 mps 737 mmHg 49%
    12:00 +33°C° 0 mm 3 mps 736 mmHg 47%
    13:00 +34°C° 0 mm 3 mps 736 mmHg 45%
    14:00 +34°C° 0 mm 3 mps 735 mmHg 44%
    15:00 +34°C° 0 mm 3 mps 735 mmHg 47%
    16:00 +33°C° 0 mm 3 mps 735 mmHg 50%
    17:00 +31°C° 0 mm 3 mps 734 mmHg 53%
    18:00 +29°C° 0 mm 3 mps 735 mmHg 62%
    19:00 +27°C° 0 mm 3 mps 736 mmHg 71%
    20:00 +25°C° 0 mm 2 mps 736 mmHg 81%
    21:00 +24°C° 0 mm 2 mps 737 mmHg 83%
    22:00 +24°C° 0 mm 1 mps 737 mmHg 86%
    23:00 +23°C° 0 mm 1 mps 738 mmHg 89%

    Day after tomorrow, 14 December, Friday

    Time Temperature Precipitation Wind Pressure Humidity
    00:00 +23°C° 0.1 mm 1 mps 738 mmHg 90%
    01:00 +23°C° 0.1 mm 1 mps 737 mmHg 91%
    02:00 +23°C° 0.1 mm 1 mps 737 mmHg 93%
    03:00 +23°C° 0 mm 1 mps 737 mmHg 93%
    04:00 +22°C° 0 mm 1 mps 738 mmHg 94%
    05:00 +22°C° 0 mm 1 mps 738 mmHg 95%
    06:00 +23°C° 0 mm 1 mps 738 mmHg 90%
    07:00 +24°C° 0 mm 1 mps 739 mmHg 85%
    08:00 +25°C° 0 mm 1 mps 739 mmHg 80%
    09:00 +27°C° 0 mm 1 mps 739 mmHg 72%
    10:00 +29°C° 0 mm 1 mps 739 mmHg 63%
    11:00 +31°C° 0 mm 1 mps 738 mmHg 55%
    12:00 +32°C° 0 mm 2 mps 738 mmHg 53%
    13:00 +32°C° 0 mm 2 mps 737 mmHg 51%
    14:00 +32°C° 0 mm 2 mps 736 mmHg 49%
    15:00 +33°C° 0 mm 3 mps 736 mmHg 51%
    16:00 +31°C° 0 mm 3 mps 735 mmHg 53%
    17:00 +32°C° 0 mm 4 mps 734 mmHg 55%
    18:00 +29°C° 0 mm 3 mps 735 mmHg 63%
    19:00 +27°C° 0 mm 2 mps 736 mmHg 72%
    20:00 +24°C° 0 mm 1 mps 737 mmHg 80%
    21:00 +24°C° 0 mm 1 mps 737 mmHg 84%
    22:00 +23°C° 0 mm 1 mps 737 mmHg 87%
    23:00 +20°C° 0 mm 0 mps 737 mmHg 91%

    15 December, Saturday

    Time Temperature Precipitation Wind Pressure Humidity
    00:00 +20°C° 0 mm 0 mps 737 mmHg 91%
    01:00 +20°C° 0 mm 0 mps 737 mmHg 91%
    02:00 +20°C° 0 mm 0 mps 736 mmHg 91%
    03:00 +22°C° 0 mm 1 mps 736 mmHg 91%
    04:00 +22°C° 0 mm 1 mps 736 mmHg 90%
    05:00 +22°C° 0 mm 1 mps 736 mmHg 90%
    06:00 +24°C° 0 mm 2 mps 736 mmHg 82%
    07:00 +26°C° 0 mm 2 mps 736 mmHg 74%
    08:00 +27°C° 0 mm 2 mps 736 mmHg 66%
    09:00 +30°C° 0 mm 2 mps 736 mmHg 59%
    10:00 +32°C° 0 mm 2 mps 735 mmHg 51%
    11:00 +35°C° 0 mm 2 mps 735 mmHg 43%
    12:00 +37°C° 0 mm 3 mps 734 mmHg 40%
    13:00 +38°C° 0 mm 3 mps 734 mmHg 36%
    14:00 +40°C° 0 mm 4 mps 733 mmHg 32%
    15:00 +38°C° 0 mm 4 mps 733 mmHg 34%
    16:00 +37°C° 0 mm 4 mps 732 mmHg 35%
    17:00 +37°C° 0 mm 4 mps 732 mmHg 37%
    18:00 +34°C° 0 mm 3 mps 733 mmHg 47%
    19:00 +30°C° 0 mm 2 mps 734 mmHg 56%
    20:00 +27°C° 0 mm 1 mps 734 mmHg 66%
    21:00 +26°C° 0 mm 1 mps 735 mmHg 70%
    22:00 +26°C° 0 mm 1 mps 736 mmHg 75%
    23:00 +25°C° 0 mm 1 mps 736 mmHg 80%

    16 December, Sunday

    Time Temperature Precipitation Wind Pressure Humidity
    00:00 +25°C° 0 mm 1 mps 736 mmHg 82%
    01:00 +24°C° 0 mm 1 mps 736 mmHg 84%
    02:00 +24°C° 0 mm 1 mps 735 mmHg 87%
    03:00 +24°C° 0 mm 1 mps 736 mmHg 89%
    04:00 +23°C° 0 mm 1 mps 736 mmHg 91%
    05:00 +23°C° 0 mm 1 mps 736 mmHg 94%
    06:00 +24°C° 0 mm 1 mps 736 mmHg 86%
    07:00 +26°C° 0 mm 1 mps 737 mmHg 79%
    08:00 +28°C° 0 mm 1 mps 737 mmHg 72%
    09:00 +30°C° 0 mm 1 mps 737 mmHg 63%
    10:00 +33°C° 0 mm 1 mps 736 mmHg 54%
    11:00 +35°C° 0 mm 1 mps 736 mmHg 45%
    12:00 +37°C° 0 mm 2 mps 735 mmHg 41%
    13:00 +38°C° 0 mm 2 mps 735 mmHg 37%
    14:00 +39°C° 0 mm 3 mps 734 mmHg 32%
    15:00 +38°C° 0 mm 3 mps 734 mmHg 35%
    16:00 +37°C° 0 mm 4 mps 733 mmHg 38%
    17:00 +36°C° 0 mm 4 mps 733 mmHg 41%
    18:00 +33°C° 0 mm 3 mps 734 mmHg 53%
    19:00 +29°C° 0 mm 2 mps 734 mmHg 66%
    20:00 +26°C° 0 mm 1 mps 734 mmHg 78%
    21:00 +25°C° 0 mm 1 mps 735 mmHg 82%
    22:00 +25°C° 0 mm 1 mps 735 mmHg 85%
    23:00 +24°C° 0 mm 1 mps 736 mmHg 89%

    17 December, Monday

    Time Temperature Precipitation Wind Pressure Humidity
    00:00 +24°C° 0 mm 1 mps 736 mmHg 91%
    01:00 +24°C° 0 mm 1 mps 736 mmHg 92%
    02:00 +22°C° 0 mm 0 mps 735 mmHg 94%
    03:00 +23°C° 0 mm 1 mps 736 mmHg 95%
    04:00 +23°C° 0 mm 1 mps 736 mmHg 95%
    05:00 +23°C° 0 mm 1 mps 736 mmHg 96%
    06:00 +25°C° 0 mm 1 mps 736 mmHg 86%
    07:00 +27°C° 0 mm 1 mps 736 mmHg 76%
    08:00 +29°C° 0 mm 1 mps 737 mmHg 66%
    09:00 +31°C° 0 mm 1 mps 736 mmHg 58%
    10:00 +34°C° 0 mm 2 mps 736 mmHg 50%
    11:00 +36°C° 0 mm 2 mps 735 mmHg 42%
    12:00 +37°C° 0 mm 2 mps 735 mmHg 39%
    13:00 +38°C° 0 mm 2 mps 734 mmHg 35%
    14:00 +40°C° 0 mm 3 mps 733 mmHg 31%
    15:00 +39°C° 0.1 mm 3 mps 733 mmHg 34%
    16:00 +38°C° 0.1 mm 3 mps 733 mmHg 36%
    17:00 +37°C° 0.1 mm 4 mps 733 mmHg 38%
    18:00 +34°C° 0.1 mm 3 mps 733 mmHg 49%
    19:00 +30°C° 0.1 mm 2 mps 734 mmHg 60%
    20:00 +27°C° 0.1 mm 1 mps 734 mmHg 70%
    21:00 +26°C° 0.1 mm 1 mps 735 mmHg 76%
    22:00 +25°C° 0.1 mm 1 mps 735 mmHg 81%
    23:00 +24°C° 0.1 mm 1 mps 735 mmHg 86%
    Show more